Regional Weather Roundup
Issued by NWS

Home | Current Version | Previous Version | Text Only | Print | Product List | Glossary On
Versions: 1 2 3 4 5 6 7 8 9 10 11 12 13 14 15 16 17 18 19 20 21 22 23 24 25 26 27 28 29 30 31 32 33 34 35 36 37 38 39 40 41 42 43 44 45 46 47 48 49 50
311
ASUS44 KLIX 010410
RWRLA
LOUISIANA WEATHER ROUNDUP
NATIONAL WEATHER SERVICE NEW ORLEANS LA
1100 PM CDT SUN AUG 31 2014

NOTE: "FAIR" INDICATES FEW OR NO CLOUDS BELOW 12,000 FEET WITH NO
      SIGNIFICANT WEATHER AND/OR OBSTRUCTIONS TO VISIBILITY.
      SKY/WX - SKY CONDITION AND SIGNIFICANT WEATHER.
      TMP - AIR TEMPERATURE.    DP   - DEWPOINT TEMPERATURE.
      RH  - RELATIVE HUMIDITY.  PRES - PRESSURE.
      HX  - HEAT INDEX.         WCI  - WIND CHILL INDEX.

*  THESE STATIONS ARE NOT NWS OR FAA STATIONS AND ARE NOT UNDER
   NWS QUALITY CONTROL.

LAZ040-048-061>063-065-066-069-010500-
SOUTHEAST LOUISIANA

CITY           SKY/WX    TMP DP  RH WIND       PRES   REMARKS
N.O. AUDUBON     N/A     84  78  82 MISG        N/A  HX  96
N.O. INTL ARPT MOCLDY    82  75  79 SE8       30.05S
N.O. LAKEFRONT PTCLDY    82  77  84 SE8       30.06S
N.O. DOWNTOWN* FAIR      84  73  70 SE5       30.06S
SLIDELL        PTCLDY    80  75  84 SE5       30.05F
BATON ROUGE    PTCLDY    80  74  81 SE6       30.03S
BOOTHVILLE     CLEAR     83  78  85 SE6       30.07S
BELLE CHASSE   PTCLDY    83  75  77 SE6       30.04F
BOGALUSA*      FAIR      80  74  82 CALM      30.07F
GALLIANO*      NOT AVBL
NEW ROADS*     FAIR      79  75  87 SE5       30.03S
GONZALES*      FAIR      80  79  98 CALM      30.03F
HAMMOND*       PTCLDY    81  75  83 CALM      30.06F
HOUMA*         PTCLDY    80  75  85 SE3       30.04S
PORT FOURCHON* NOT AVBL

$$

LAZ041-044-053-054-010500-
SOUTHWEST LOUISIANA

CITY           SKY/WX    TMP DP  RH WIND       PRES   REMARKS
LAKE CHARLES   PTCLDY    78  76  93 SE6       30.00R
LAFAYETTE      PTCLDY    79  76  90 SE3       30.02S
PATTERSON        N/A     81  77  89 SE5       30.05F
SALT POINT       N/A     86  79  79 SE8       30.01F HX  99
NEW IBERIA     PTCLDY    80  76  87 SE6       30.03R
CHENAULT AIRPK PTCLDY    78  75  91 SE3       30.01S

$$

LAZ027-028-010500-
CENTRAL LOUISIANA

CITY           SKY/WX    TMP DP  RH WIND       PRES   REMARKS
FORT POLK      MOCLDY    75  73  93 SE5       30.01S
ALEXANDRIA INT MOCLDY    76  73  91 SE3       29.99S
ALEXANDRIA     MOCLDY    76  73  91 CALM      30.01S

$$

LAZ001-002-010500-
NORTHWEST LOUISIANA

CITY           SKY/WX    TMP DP  RH WIND       PRES   REMARKS
SHREVEPORT     PTCLDY    77  72  84 S7        29.97S
BARKSDALE AFB  PTCLDY    76  71  84 S8        29.98S
DTN SHREVEPORT PTCLDY    77  72  84 S8        29.98R

$$

LAZ014-016-010500-
NORTHEAST LOUISIANA

CITY           SKY/WX    TMP DP  RH WIND       PRES   REMARKS
MONROE         MOCLDY    76  70  82 S3        30.00F
TALLULAH       PTCLDY    75  73  93 SE3       30.01F

$$




USA.gov is the U.S. government's official web portal to all federal, state and local government web resources and services.